Preview of NWS' New Version of Forecast
This preview is not operational and should not be used for support decisions.

Regional Weather Roundup (RWR)

Issued by Gray - Portland, ME (GYX)

                            
000
ASUS41 KGYX 210210
RWRGYX
WEATHER ROUNDUP FOR MAINE AND NEW HAMPSHIRE
NATIONAL WEATHER SERVICE GRAY ME
1000 PM EDT TUE AUG 20 2019

MEZ002-005-006-010-012-015-018-020-021-024-026-027-029-210300-
MAINE
  
CITY           SKY/WX    TMP DP  RH WIND       PRES   REMARKS
PORTLAND       FAIR      70  54  56 SW5       30.04S                  
SANFORD        FAIR      60  57  89 CALM      30.05S                  
BAR HARBOR     FAIR      65  59  81 CALM      30.04S                  
WISCASSET      FAIR      62  57  83 CALM      30.05S                  
ROCKLAND       FAIR      61  58  90 CALM      30.04S                  
FRYEBURG       FAIR      62  58  86 CALM      30.04S                  
LEWISTONAUBURN FAIR      66  57  72 CALM      30.04S                  
AUGUSTA        FAIR      67  56  67 S5        30.04S                  
WATERVILLE     FAIR      66  60  81 SW3       30.02R                  
BANGOR         FAIR      68  60  75 S6        30.02S                  
GREENVILLE     NOT AVBL                                               
MILLINOCKET    FAIR      65  58  78 CALM      30.02R                  
HOULTON        FAIR      61  55  81 SW5       29.98S                  
PRESQUE ISLE   FAIR      63  56  78 CALM      29.99R                  
FRENCHVILLE    FAIR      66  51  58 SW7       29.97R                  
CARIBOU        FAIR      64  53  67 S5        29.97R                  
$$

NHZ002-005-008-009-011-012-014-210300-
NEW HAMPSHIRE
  
CITY           SKY/WX    TMP DP  RH WIND       PRES   REMARKS
PORTSMOUTH     MOCLDY    67  58  72 CALM      30.02F                  
ROCHESTER      FAIR      66  59  78 CALM      30.04S                  
NASHUA         FAIR      69  64  84 CALM      30.05R                  
MANCHESTER     FAIR      73  61  65 CALM      30.02S                  
CONCORD        FAIR      65  59  81 CALM      30.04R                  
LACONIA        FAIR      66  63  90 CALM      30.04S                  
PLYMOUTH       FAIR      61  60  94 CALM      30.05R                  
BERLIN         NOT AVBL                                               
WHITEFIELD     FAIR      59  57  93 CALM      30.06R                  
JAFFREY        FAIR      63  59  87 S5        30.09R                  
KEENE          FAIR      63  62  97 CALM      30.06S                  
LEBANON        FAIR      61  55  81 CALM      30.04R                  
MT WASHINGTON  PTCLDY    52  43  71 W20         N/A                   
$$

VTZ005-007-008-210300-
VERMONT
  
CITY           SKY/WX    TMP DP  RH WIND       PRES   REMARKS
ST JOHNSBURY     N/A     64  61  90 MISG      30.03R                  
MONTPELIER     FAIR      64  57  78 VRB5      30.09R                  
BURLINGTON     FAIR      70  59  68 CALM      30.00S                  
$$

MAZ007-012-024-CTZ003-RIZ002-NYZ038-NYZ072-210300-
SOUTHERN NEW ENGLAND AND NY
  
CITY           SKY/WX    TMP DP  RH WIND       PRES   REMARKS
BOSTON         FAIR      72  63  73 VRB3      30.04R                  
WORCESTER      FAIR      72  56  57 S5        30.09R                  
NANTUCKET      FAIR      65  63  93 SE5       30.06F                  
PROVIDENCE     FAIR      73  65  75 SW5       30.06R                  
HARTFORD       MOCLDY    76  62  62 CALM      30.04R                  
ALBANY         FAIR      74  65  73 CALM      30.02S                  
NEW YORK CITY  FAIR      81  66  60 S9        30.04R                  
$$

ANZ081-ANZ082-ANZ150-NHZ014-MEZ023>029-210300-
COASTAL MARINE OBSERVATIONS
  
STATION/POSITION TIME  TEMP    WIND        PRES    WAVE
                       AIR SEA DIR/SP/G            HT/PER
                 (UTC) (F)     (DEG/KT/KT) (MB)    (FT/S)
MATINICUS ROCK   0150   64                 1017.0R
ISLE OF SHOALS   0100   69     180/ 14/ 15 1016.6R
JEFFREYS LEDGE   0138      66                N/A     2/11
CASHES LEDGE BUO 0150   65 65  170/  6/  6 1017.9F   2/ 8
GEORGES BANK BUO 0150   67 70  250/  4/  6 1018.9R   2/10
$$

.............KEY..............
   WCI - WIND CHILL
   TC  - TEMPERATURE IN CELSIUS
   VSB - VISIBILITY IN MILES
   HX  - HEAT INDEX
   FAIR- INDICATES FEW OR NO CLOUDS BELOW 12,000 FT, WITH NO 
         SIGNIFICANT WEATHER AND/OR OBSTRUCTIONS TO VISIBILITY.